EW8697 Weather Reports


Display with metric or nautical units.
time (UTC)temp
F
wind
direction
speed
MPH
gust
MPH
rain 1hr
in
rain 24hr
in
rain mn
in
humidity
%
barometer
mb
20200119192501 14 278 2.0 12.0 0.00 0.19 0.00 81 1016.0
20200119192002 14 286 5.0 15.0 0.00 0.19 0.00 80 1016.0
20200119191502 14 288 2.0 13.0 0.00 0.19 0.00 81 1016.0
20200119190607 14 245 4.0 15.0 0.00 0.19 0.00 80 1015.9
20200119190130 14 272 4.0 14.0 0.00 0.19 0.00 81 1015.8
20200119185558 14 319 5.0 14.0 0.00 0.19 0.00 80 1015.7
20200119185058 14 273 4.0 13.0 0.00 0.19 0.00 81 1015.7
20200119184647 14 266 4.0 13.0 0.00 0.19 0.00 81 1015.7
20200119184107 14 271 7.0 13.0 0.00 0.19 0.00 80 1015.5
20200119183557 14 297 5.0 14.0 0.00 0.19 0.00 81 1015.6
20200119183205 14 298 8.0 18.0 0.00 0.19 0.00 80 1015.6
20200119182557 13 307 7.0 18.0 0.00 0.19 0.00 80 1015.4
20200119182105 13 256 5.0 14.0 0.00 0.19 0.00 80 1015.5
20200119181744 13 248 7.0 16.0 0.00 0.19 0.00 80 1015.3
20200119181101 13 307 6.0 16.0 0.00 0.19 0.00 80 1015.4
20200119180556 13 272 5.0 15.0 0.00 0.19 0.00 80 1015.4
20200119180209 13 286 7.0 15.0 0.00 0.19 0.00 79 1015.5
20200119175603 14 298 5.0 12.0 0.00 0.20 0.00 80 1015.4
20200119175054 14 311 5.0 13.0 0.00 0.20 0.00 81 1015.3
20200119174813 13 281 4.0 13.0 0.00 0.20 0.00 80 1015.3
20200119174056 13 270 4.0 16.0 0.00 0.20 0.00 80 1015.2
20200119173553 13 262 5.0 10.0 0.00 0.20 0.00 81 1015.1
20200119173228 13 267 2.0 16.0 0.00 0.20 0.00 81 1015.2
20200119172554 13 349 5.0 16.0 0.00 0.20 0.00 80 1015.3
20200119172101 13 286 5.0 11.0 0.00 0.20 0.00 80 1015.3
20200119171756 13 278 5.0 11.0 0.00 0.20 0.00 80 1015.3
20200119171120 13 307 5.0 12.0 0.00 0.20 0.00 81 1015.2
20200119170552 13 264 6.0 12.0 0.00 0.20 0.00 80 1015.3
20200119170433 13 267 4.0 17.0 0.00 0.20 0.00 79 1015.2
20200119165552 13 306 6.0 20.0 0.00 0.20 0.00 79 1015.2
20200119165106 13 288 8.0 21.0 0.00 0.20 0.00 78 1015.2
20200119164802 13 289 8.0 21.0 0.00 0.20 0.00 79 1015.2
20200119164107 13 263 5.0 15.0 0.00 0.20 0.00 81 1015.1
20200119163548 13 236 6.0 18.0 0.00 0.20 0.00 82 1015.1
20200119163125 13 297 6.0 15.0 0.00 0.20 0.00 82 1015.1
20200119162547 13 229 5.0 15.0 0.00 0.20 0.00 81 1015.0
20200119162050 13 307 7.0 15.0 0.00 0.20 0.00 81 1015.0
20200119161647 13 281 4.0 14.0 0.00 0.20 0.00 82 1015.1
20200119161056 13 285 6.0 10.0 0.00 0.20 0.00 81 1015.0
20200119160545 13 307 4.0 11.0 0.00 0.20 0.00 81 1015.0
20200119160208 13 249 4.0 11.0 0.00 0.20 0.00 81 1015.0
20200119155557 13 295 6.0 16.0 0.00 0.20 0.00 81 1014.9
20200119155050 13 271 5.0 13.0 0.00 0.20 0.00 80 1014.8
20200119154612 13 292 6.0 14.0 0.00 0.20 0.00 80 1014.7
20200119154042 13 246 4.0 12.0 0.00 0.20 0.00 81 1014.6
20200119153541 13 262 4.0 16.0 0.00 0.20 0.00 81 1014.4
20200119153324 13 300 4.0 15.0 0.00 0.20 0.00 81 1014.3
20200119152605 13 321 7.0 17.0 0.00 0.20 0.00 80 1014.1
20200119152043 13 284 6.0 16.0 0.00 0.20 0.00 80 1014.2
20200119151636 14 255 6.0 15.0 0.00 0.20 0.00 80 1013.9
20200119151042 14 266 7.0 15.0 0.00 0.20 0.00 81 1013.9
20200119150605 14 271 6.0 11.0 0.00 0.20 0.00 81 1013.6
20200119150211 14 271 3.0 10.0 0.00 0.20 0.00 81 1013.7
20200119145534 14 311 3.0 10.0 0.00 0.21 0.00 80 1013.5
20200119145104 14 264 3.0 11.0 0.00 0.21 0.00 81 1013.5
20200119144639 14 252 5.0 15.0 0.00 0.21 0.00 80 1013.3
20200119144036 14 314 5.0 15.0 0.00 0.21 0.00 80 1013.3
20200119143535 14 291 6.0 15.0 0.00 0.21 0.00 79 1013.1
20200119143100 14 279 4.0 17.0 0.00 0.21 0.00 79 1013.0
20200119142531 14 238 6.0 17.0 0.00 0.21 0.00 78 1013.0
20200119142028 14 308 6.0 14.0 0.00 0.21 0.00 78 1012.9
20200119141547 14 271 7.0 16.0 0.00 0.21 0.00 78 1013.0
20200119141047 14 283 6.0 16.0 0.00 0.21 0.00 78 1012.8
20200119140537 14 259 6.0 12.0 0.00 0.21 0.00 80 1012.6
20200119140117 14 283 2.0 13.0 0.00 0.21 0.00 79 1012.5
20200119135529 15 283 6.0 13.0 0.00 0.21 0.00 79 1012.4
20200119135031 15 286 3.0 10.0 0.00 0.21 0.00 79 1012.3
20200119134649 15 268 4.0 16.0 0.00 0.21 0.00 79 1012.3
20200119134024 15 307 8.0 16.0 0.00 0.21 0.00 78 1012.3
20200119133026 15 238 8.0 16.0 0.00 0.21 0.00 79 1012.0
20200119132518 15 320 7.0 17.0 0.00 0.21 0.00 79 1011.9
20200119132018 15 270 7.0 21.0 0.00 0.21 0.00 79 1011.8
20200119131615 15 307 8.0 22.0 0.00 0.21 0.00 79 1011.8
20200119131017 16 275 8.0 18.0 0.00 0.21 0.00 79 1011.8
20200119130515 16 274 3.0 10.0 0.00 0.21 0.00 80 1011.8
20200119130025 16 269 4.0 12.0 0.00 0.21 0.00 81 1011.7
20200119125516 16 293 5.0 12.0 0.00 0.21 0.00 81 1011.5
20200119125012 16 261 4.0 19.0 0.00 0.21 0.00 81 1011.3
20200119124524 17 263 4.0 19.0 0.00 0.21 0.00 82 1011.2
20200119124014 17 283 7.0 18.0 0.00 0.21 0.00 84 1011.2
20200119123508 17 304 4.0 16.0 0.00 0.21 0.00 84 1011.1
20200119123026 17 264 5.0 16.0 0.00 0.21 0.00 84 1010.9
20200119122511 17 249 6.0 14.0 0.00 0.21 0.00 83 1010.9
20200119122007 17 280 3.0 14.0 0.00 0.21 0.00 83 1010.9
20200119121510 17 278 4.0 10.0 0.00 0.21 0.00 83 1010.8
20200119121005 17 271 4.0 14.0 0.00 0.21 0.00 83 1010.7
20200119120505 17 256 6.0 14.0 0.00 0.21 0.00 83 1010.7
20200119120005 17 267 7.0 18.0 0.00 0.21 0.00 83 1010.7
20200119115502 17 267 6.0 18.0 0.00 0.21 0.00 83 1010.5
20200119115006 17 302 8.0 19.0 0.00 0.21 0.00 83 1010.5
20200119114115 17 292 4.0 25.0 0.00 0.21 0.00 84 1010.6
20200119113603 17 279 10.0 25.0 0.00 0.21 0.00 86 1010.5
20200119113201 18 264 4.0 15.0 0.00 0.21 0.00 88 1010.4
20200119112556 18 274 5.0 17.0 0.00 0.21 0.00 88 1010.4
20200119112055 18 283 4.0 12.0 0.00 0.21 0.00 87 1010.1
20200119111716 18 251 5.0 12.0 0.00 0.21 0.00 87 1010.1
20200119111123 18 259 3.0 12.0 0.00 0.21 0.00 87 1009.9
20200119110558 18 250 3.0 13.0 0.00 0.21 0.00 86 1009.8
20200119110130 18 259 4.0 11.0 0.00 0.21 0.00 86 1009.6
20200119105551 19 283 2.0 11.0 0.00 0.21 0.00 86 1009.6
20200119105051 19 340 5.0 17.0 0.00 0.21 0.00 85 1009.4
20200119104818 19 285 4.0 17.0 0.00 0.21 0.00 85 1009.5
20200119104052 19 281 3.0 15.0 0.00 0.21 0.00 84 1009.3
20200119103559 19 239 6.0 15.0 0.00 0.21 0.00 83 1009.3
20200119103219 19 262 3.0 10.0 0.00 0.21 0.00 83 1009.2
20200119102554 19 313 3.0 15.0 0.00 0.21 0.00 82 1009.1
20200119102109 19 283 5.0 19.0 0.00 0.21 0.00 82 1008.9
20200119101608 19 244 8.0 19.0 0.00 0.21 0.00 81 1008.8
20200119101045 19 261 5.0 16.0 0.00 0.21 0.00 81 1008.8
20200119100546 19 284 8.0 22.0 0.00 0.21 0.00 81 1008.7
20200119100138 19 226 7.0 22.0 0.00 0.21 0.00 81 1008.7
20200119095542 19 333 8.0 22.0 0.00 0.21 0.00 80 1008.7
20200119095041 19 250 8.0 19.0 0.00 0.21 0.00 80 1008.5
20200119094610 19 311 6.0 19.0 0.00 0.21 0.00 80 1008.6
20200119094040 20 297 8.0 19.0 0.00 0.21 0.00 79 1008.4
20200119093539 20 289 8.0 26.0 0.00 0.21 0.00 80 1008.2
20200119093143 20 266 14.0 26.0 0.00 0.21 0.00 81 1008.3
20200119092537 20 268 8.0 22.0 0.00 0.21 0.00 81 1008.3
20200119092039 20 278 11.0 18.0 0.00 0.21 0.00 81 1008.3
20200119091708 20 302 8.0 20.0 0.00 0.21 0.00 82 1008.2
20200119091050 20 289 7.0 23.0 0.00 0.21 0.00 82 1008.2
20200119090536 20 263 10.0 23.0 0.00 0.21 0.00 83 1008.1
20200119090116 21 263 12.0 19.0 0.00 0.21 0.00 84 1008.0
20200119085528 21 252 6.0 15.0 0.00 0.21 0.00 86 1008.1
20200119085028 21 269 7.0 20.0 0.00 0.21 0.00 86 1007.9
20200119084543 21 298 9.0 20.0 0.00 0.21 0.00 86 1008.0
20200119084027 21 275 5.0 18.0 0.00 0.21 0.00 85 1007.7
20200119083525 21 310 7.0 18.0 0.00 0.21 0.00 85 1007.7
20200119083123 21 297 7.0 17.0 0.00 0.21 0.00 86 1007.7
20200119082527 21 313 6.0 19.0 0.00 0.21 0.00 85 1007.7
20200119082035 22 266 7.0 17.0 0.00 0.21 0.00 84 1007.7
20200119081541 22 310 8.0 16.0 0.00 0.21 0.00 83 1007.7
20200119081034 22 311 7.0 16.0 0.00 0.21 0.00 83 1007.7
20200119080533 22 277 6.0 27.0 0.00 0.21 0.00 83 1007.8
20200119080045 22 323 8.0 27.0 0.00 0.21 0.00 82 1007.8
20200119075519 23 238 11.0 26.0 0.00 0.21 0.00 83 1007.7
20200119075015 23 309 10.0 25.0 0.00 0.21 0.00 84 1007.6
20200119074515 23 328 11.0 25.0 0.00 0.21 0.00 85 1007.5
20200119074011 24 275 13.0 25.0 0.00 0.21 0.00 87 1007.1
20200119073509 24 277 7.0 26.0 0.00 0.21 0.00 89 1006.9
20200119073024 25 290 8.0 26.0 0.00 0.21 0.00 87 1006.7
20200119072508 25 274 11.0 24.0 0.00 0.21 0.00 86 1006.5
20200119072009 25 303 7.0 24.0 0.00 0.21 0.00 86 1006.2
20200119071506 25 264 11.0 23.0 0.00 0.21 0.00 85 1006.2
20200119071007 26 306 9.0 23.0 0.00 0.21 0.00 84 1006.2
20200119070503 26 289 7.0 23.0 0.00 0.21 0.00 83 1006.1
20200119070252 26 277 10.0 23.0 0.00 0.21 0.00 82 1006.0
20200119065552 26 310 10.0 20.0 0.00 0.21 0.00 82 1005.9
20200119065051 27 271 8.0 18.0 0.00 0.21 0.00 83 1005.8
20200119064659 27 341 6.0 18.0 0.00 0.21 0.00 83 1005.8
20200119064050 27 274 7.0 25.0 0.00 0.21 0.00 83 1005.8
20200119063551 27 262 6.0 25.0 0.00 0.21 0.00 82 1005.9
20200119063131 27 105 5.0 22.0 0.00 0.21 0.00 82 1005.6
20200119062554 27 290 6.0 22.0 0.00 0.21 0.00 82 1005.6
20200119062046 28 311 7.0 21.0 0.00 0.21 0.00 82 1005.4
20200119061616 28 239 6.0 19.0 0.00 0.21 0.00 82 1005.4
20200119061045 28 201 9.0 19.0 0.00 0.21 0.00 82 1005.2
20200119060544 28 302 7.0 21.0 0.00 0.21 0.00 82 1005.1
20200119060113 28 292 7.0 21.0 0.00 0.21 0.00 82 1005.2
20200119055543 28 244 5.0 21.0 0.00 0.21 0.00 82 1005.2
20200119055041 28 281 4.0 16.0 0.00 0.21 0.00 82 1005.1
20200119054648 28 223 4.0 16.0 0.00 0.21 0.00 83 1005.1
20200119054038 28 345 6.0 16.0 0.00 0.21 0.00 83 1004.9
20200119053537 28 297 4.0 18.0 0.00 0.21 0.00 85 1004.8
20200119053144 28 242 7.0 23.0 0.00 0.21 0.00 85 1004.9
20200119052534 29 307 10.0 23.0 0.00 0.21 0.00 85 1004.9
20200119052035 29 272 6.0 20.0 0.00 0.21 0.00 85 1004.9
20200119051618 29 214 7.0 17.0 0.00 0.21 0.00 85 1004.8
20200119051033 30 239 5.0 19.0 0.00 0.21 0.00 86 1004.8
20200119050545 30 255 8.0 19.0 0.00 0.21 0.00 86 1004.8
20200119050053 30 256 9.0 22.0 0.00 0.21 0.00 85 1004.7
20200119045529 31 245 10.0 22.0 0.00 0.21 0.21 84 1004.6
20200119045041 31 247 11.0 22.0 0.00 0.21 0.21 83 1004.5
20200119044755 31 273 5.0 17.0 0.00 0.21 0.21 84 1004.3
20200119044028 31 311 6.0 21.0 0.00 0.21 0.21 84 1004.2
20200119043533 31 284 10.0 24.0 0.00 0.21 0.21 85 1003.9
20200119043054 31 304 8.0 24.0 0.00 0.21 0.21 87 1004.0
20200119042527 32 276 9.0 21.0 0.00 0.21 0.21 88 1003.7
20200119042027 32 309 11.0 21.0 0.00 0.21 0.21 88 1003.8
20200119041552 33 280 6.0 18.0 0.00 0.21 0.21 88 1003.5
20200119041038 33 323 4.0 9.0 0.00 0.21 0.21 88 1003.4
20200119040527 33 288 0.0 8.0 0.00 0.21 0.21 88 1003.3
20200119040133 33 281 2.0 8.0 0.00 0.21 0.21 88 1003.4
20200119035527 33 227 3.0 7.0 0.00 0.21 0.21 88 1003.3
20200119035036 34 301 2.0 7.0 0.00 0.21 0.21 88 1003.3
20200119034537 34 257 4.0 15.0 0.00 0.21 0.21 87 1003.2
20200119034026 34 259 4.0 11.0 0.00 0.21 0.21 86 1003.2
20200119033526 34 313 3.0 11.0 0.00 0.21 0.21 85 1003.2
20200119033203 34 269 5.0 12.0 0.00 0.21 0.21 85 1003.2
20200119032533 34 240 4.0 18.0 0.00 0.21 0.21 85 1003.2
20200119032025 34 288 8.0 18.0 0.00 0.21 0.21 85 1003.3
20200119031539 34 250 5.0 15.0 0.00 0.21 0.21 85 1003.2
20200119031032 34 262 5.0 18.0 0.00 0.21 0.21 84 1003.4
20200119030526 34 233 5.0 18.0 0.00 0.21 0.21 83 1003.4
20200119030122 34 293 6.0 19.0 0.00 0.21 0.21 83 1003.4
20200119025524 35 247 5.0 20.0 0.00 0.21 0.21 83 1003.4
20200119025025 35 293 4.0 20.0 0.00 0.21 0.21 83 1003.4
20200119024643 35 357 6.0 19.0 0.00 0.21 0.21 82 1003.6
20200119024023 35 279 6.0 13.0 0.00 0.21 0.21 82 1003.7
20200119023524 35 193 5.0 13.0 0.00 0.21 0.21 82 1003.6
20200119023042 35 257 4.0 14.0 0.00 0.21 0.21 81 1003.5
20200119022522 35 269 5.0 14.0 0.00 0.21 0.21 81 1003.6
20200119022027 35 287 3.0 11.0 0.00 0.21 0.21 81 1003.6
20200119021600 35 272 4.0 10.0 0.00 0.21 0.21 81 1003.9
20200119021022 35 254 6.0 10.0 0.00 0.21 0.21 81 1003.9
20200119020522 35 279 4.0 9.0 0.00 0.21 0.21 81 1003.8
20200119020110 35 290 3.0 10.0 0.00 0.21 0.21 80 1003.9
20200119015521 35 256 4.0 12.0 0.00 0.21 0.21 80 1003.9
20200119015021 35 289 5.0 16.0 0.00 0.21 0.21 79 1003.8
20200119014602 35 279 5.0 21.0 0.00 0.21 0.21 79 1003.8
20200119014026 35 275 8.0 21.0 0.00 0.21 0.21 79 1003.9
20200119013521 35 278 5.0 18.0 0.00 0.21 0.21 79 1003.9
20200119013037 35 277 7.0 15.0 0.00 0.21 0.21 78 1004.0
20200119012530 35 306 9.0 22.0 0.00 0.21 0.21 78 1004.1
20200119012019 35 282 9.0 22.0 0.00 0.21 0.21 78 1004.1
20200119011549 35 249 9.0 21.0 0.00 0.21 0.21 78 1004.1
20200119011020 35 310 6.0 27.0 0.00 0.21 0.21 78 1004.1
20200119010531 36 349 13.0 27.0 0.00 0.21 0.21 78 1004.1
20200119010114 36 261 9.0 17.0 0.00 0.21 0.21 78 1004.0
20200119005528 36 275 6.0 16.0 0.00 0.21 0.21 78 1004.0
20200119005029 36 275 8.0 25.0 0.00 0.21 0.21 78 1004.0
20200119004018 36 264 10.0 26.0 0.00 0.21 0.21 78 1004.1
20200119003518 36 255 13.0 26.0 0.00 0.21 0.21 77 1004.0
20200119003054 36 267 10.0 28.0 0.00 0.21 0.21 77 1003.9
20200119002517 36 266 14.0 28.0 0.00 0.21 0.21 77 1003.9
20200119002021 37 270 14.0 27.0 0.00 0.21 0.21 77 1003.9
20200119001555 37 256 12.0 26.0 0.00 0.21 0.21 78 1003.8
20200119001043 37 263 6.0 25.0 0.00 0.21 0.21 80 1003.8
20200119000516 37 284 6.0 25.0 0.00 0.21 0.21 81 1003.7
20200119000106 37 278 12.0 24.0 0.00 0.21 0.21 82 1003.6
20200118235515 37 266 10.0 21.0 0.00 0.21 0.21 83 1003.5
20200118235015 37 277 8.0 16.0 0.00 0.21 0.21 83 1003.5
20200118234531 37 268 7.0 18.0 0.00 0.21 0.21 83 1003.2
20200118234033 37 264 8.0 16.0 0.00 0.21 0.21 84 1003.2
20200118233515 38 264 6.0 24.0 0.00 0.21 0.21 85 1003.1
20200118233116 38 255 11.0 24.0 0.00 0.21 0.21 86 1002.9
20200118232513 38 224 6.0 21.0 0.00 0.21 0.21 87 1002.8
20200118232018 38 287 6.0 21.0 0.00 0.21 0.21 89 1002.6
20200118231522 38 295 10.0 20.0 0.00 0.21 0.21 89 1002.4
20200118231013 39 245 8.0 24.0 0.01 0.21 0.21 91 1002.4
20200118230521 39 241 6.0 20.0 0.01 0.21 0.21 92 1002.3
20200118230046 39 259 8.0 28.0 0.01 0.21 0.21 93 1002.1
20200118225513 40 264 7.0 28.0 0.01 0.21 0.21 93 1001.9
20200118225013 40 278 11.0 27.0 0.01 0.21 0.21 94 1001.8
20200118224526 40 262 9.0 19.0 0.02 0.21 0.21 94 1001.9
20200118223513 40 251 4.0 13.0 0.02 0.21 0.21 94 1001.6
20200118223022 40 270 6.0 13.0 0.02 0.21 0.21 94 1001.5
20200118222534 40 236 4.0 8.0 0.02 0.21 0.21 94 1001.4
20200118222016 40 233 3.0 13.0 0.02 0.21 0.21 94 1001.2
20200118221558 40 269 5.0 14.0 0.03 0.21 0.21 94 1001.1
20200118221011 40 281 2.0 11.0 0.02 0.20 0.20 94 1001.0
20200118220514 40 285 3.0 10.0 0.03 0.20 0.20 94 1001.0
20200118220027 40 288 4.0 17.0 0.03 0.20 0.20 94 1001.0
20200118215510 40 173 2.0 17.0 0.03 0.20 0.20 94 1000.8
20200118215010 40 259 4.0 14.0 0.04 0.20 0.20 94 1001.0
20200118214520 40 283 5.0 14.0 0.03 0.19 0.19 94 1001.2
20200118214009 40 239 3.0 12.0 0.04 0.19 0.19 94 1000.8
20200118213510 40 279 3.0 12.0 0.04 0.19 0.19 94 1000.9
20200118213015 40 221 3.0 10.0 0.05 0.19 0.19 94 1000.8
20200118212508 39 296 2.0 14.0 0.05 0.19 0.19 94 1000.9
20200118212020 39 233 5.0 14.0 0.06 0.19 0.19 94 1000.8
20200118211508 39 219 6.0 14.0 0.05 0.18 0.18 94 1000.8
20200118211004 39 229 5.0 16.0 0.06 0.18 0.18 94 1001.0
20200118210507 39 250 3.0 11.0 0.05 0.17 0.17 94 1001.1
20200118210004 38 239 5.0 12.0 0.06 0.17 0.17 94 1001.4
20200118205501 38 186 2.0 12.0 0.05 0.16 0.16 94 1001.4
20200118205100 38 210 3.0 11.0 0.06 0.16 0.16 94 1001.7
20200118204730 38 219 4.0 14.0 0.07 0.16 0.16 94 1001.7
20200118204059 38 170 4.0 12.0 0.07 0.15 0.15 94 1001.7
20200118203626 38 237 4.0 10.0 0.07 0.15 0.15 94 1001.8
20200118203208 38 172 4.0 10.0 0.07 0.14 0.14 94 1001.8
20200118202607 38 214 2.0 7.0 0.08 0.14 0.14 94 1001.9
20200118202056 38 133 3.0 8.0 0.08 0.13 0.13 94 1001.9
20200118201710 37 211 3.0 9.0 0.09 0.13 0.13 94 1001.9
20200118200526 37 246 3.0 13.0 0.09 0.12 0.12 94 1002.0
20200118200129 37 221 3.0 17.0 0.09 0.11 0.11 94 1002.0
20200118195531 37 186 4.0 17.0 0.09 0.11 0.11 94 1002.1
20200118195033 37 149 3.0 12.0 0.08 0.10 0.10 94 1002.2
20200118194609 37 260 5.0 12.0 0.07 0.09 0.09 94 1002.3
20200118194022 37 148 3.0 11.0 0.06 0.08 0.08 94 1002.2
20200118193522 37 289 4.0 12.0 0.06 0.08 0.08 94 1002.2
20200118193026 37 273 3.0 13.0 0.05 0.07 0.07 94 1002.5